Weather Roundup
Issued by NWS

Home | Current Version | Previous Version | Text Only | Print | Product List | Glossary On
Versions: 1 2 3 4 5 6 7 8 9 10 11 12 13 14 15 16 17 18 19 20 21 22 23 24 25 26 27 28 29 30 31 32 33 34 35 36 37 38 39 40 41 42 43 44 45 46 47 48 49 50
000
NZUS93 KARX 040610
HRRWXR

CURRENT HOURLY OBSERVATIONS ACROSS
MUCH OF THE UPPER MISSISSIPPI VALLEY
NATIONAL WEATHER SERVICE LA CROSSE WI
100 AM CDT MON MAY 04 2015


...SOUTHEAST MINNESOTA...


CITY           SKY/WX    TMP DP  RH WIND       PRES   REMARKS
ROCHESTER      CLOUDY    56  54  93 NW7       29.95R
ROCHESTER/MAYO FAIR      57  56  99 NW5       29.94R
WINONA         CLOUDY    59  57  94 NW3       29.92R
AUSTIN         CLOUDY    57  54  88 N6        29.93S
ALBERT LEA     MOCLDY    57  52  82 N5        29.95R
DODGE CENTER   MOCLDY    55  54  94 N8        29.94R
PRESTON        CLOUDY    56  55  94 S3        29.92R
OWATONNA       PTCLDY    54  50  87 N5        29.96R
FARIBAULT      PTCLDY    55  48  76 NW3       29.97R
$$

...ELSEWHERE IN MINNESOTA...


CITY           SKY/WX    TMP DP  RH WIND       PRES   REMARKS
MINNEAPOLIS    CLOUDY    58  47  66 NW6       29.97R
INTNL FALLS    CLEAR     37  33  85 CALM      30.02R
DULUTH         CLEAR     52  30  43 N8        29.98R
RED WING       CLOUDY    55  52  88 NW3       29.95R
REDWOOD FALLS  PTCLDY    56  32  40 NW7       30.00R
MANKATO          N/A    N/A N/A N/A MISG        N/A
WORTHINGTON    MOCLDY    55  28  35 N9        30.01R
FAIRMONT       MOCLDY    55  39  54 N8        29.97R
$$

...SOUTHWEST WISCONSIN...


CITY           SKY/WX    TMP DP  RH WIND       PRES   REMARKS
LA CROSSE      CLOUDY    61  57  87 S5        29.88R
PRAIRIE DU CHI LGT RAIN  57  56  95 SE3       29.89F
BOSCOBEL       CLOUDY    60  57  89 N5        29.91F
LONE ROCK      RAIN      59  57  93 SE7       29.93F
PLATTEVILLE    CLOUDY    58  56  91 CALM      29.95F
FORT MC COY    CLOUDY    59  57  95 CALM      29.86R
CAMP DOUGLAS   LGT RAIN  58  58 100 SE17      29.84F
VIROQUA        FAIR      57  57 100 SE12      29.88F
WIS DELLS      NOT AVBL
$$

...ELSEWHERE IN WISCONSIN...


CITY           SKY/WX    TMP DP  RH WIND       PRES   REMARKS
MILWAUKEE      CLOUDY    65  52  62 SW15G21   29.86F
MADISON        TSTM      59  57  93 W6        29.98R FOG
GREEN BAY      CLOUDY    61  57  87 NE9       29.89F
EAU CLAIRE     CLOUDY    55  52  89 CALM      29.92R
BLACK RVR FLS  CLOUDY    58  58 100 NW6       29.88R
MEDFORD        CLOUDY    54  52  94 N6        29.90R
WAUSAU         CLOUDY    57  55  93 NW3       29.87S
WIS RAPIDS     LGT RAIN  58  55  90 SE7       29.88F
MARSHFIELD     CLOUDY    58  50  76 E3        29.88F
RICE LAKE      CLOUDY    52  45  75 CALM      29.97R
$$

...NORTHEAST IOWA...


CITY           SKY/WX    TMP DP  RH WIND       PRES   REMARKS
DECORAH        CLOUDY    59  59 100 N3        29.91F
MASON CITY     TSTM      59  57  93 N8        29.93S FOG
CHARLES CITY   CLOUDY    59  59 100 NE5       29.91R
OELWEIN        CLOUDY    61  57  88 S12       29.91R
$$

...ELSEWHERE IN IOWA...


CITY           SKY/WX    TMP DP  RH WIND       PRES   REMARKS
DES MOINES     CLOUDY    71  57  61 SE5       29.86S
IOWA CITY      LGT RAIN  61  58  90 E6        29.95F
FORT DODGE     CLOUDY    61  55  82 N7        29.93R
$$

...NORTHERN ILLINOIS...


CITY           SKY/WX    TMP DP  RH WIND       PRES   REMARKS
CHICAGO-OHARE  MOCLDY    67  48  50 SW16G23   29.90F
CHICAGO-MIDWAY MOCLDY    68  49  50 SW13      29.93S
MOLINE         CLOUDY    67  52  58 N18G26    29.96R THUNDER
ROCKFORD       CLOUDY    61  55  81 S8        29.90F
PEORIA         CLOUDY    68  49  50 S9        29.95S
$$

NOTE: "FAIR" INDICATES FEW OR NO CLOUDS BELOW 12,000 FEET WITH NO
SIGNIFICANT WEATHER AND/OR OBSTRUCTIONS TO VISIBILITY. WIND
SPEEDS ARE IN MILES-PER-HOUR.



USA.gov is the U.S. government's official web portal to all federal, state and local government web resources and services.